Powrót do katalogu

USA 103

AktywnyMilitariaHEO
NORAD 23097·PAYLOAD·🇺🇸 United States

Wystrzelony May 3, 1994 z Cape Canaveral Space Force Station

Loading…

Następne Przeloty (najbliższe 24 godziny)

TLE

ŚwieżeSource: Mike McCants

Epoka: Sep 14, 2026, 22:47 UTC

1 23097U 94026A   26257.94958589  .00000052  00000-0  00000-0 0    01
2 23097  62.5982 133.6489 6786562 264.0324  21.2466  2.00604814  4572

Śledź USA 103 w czasie rzeczywistym z AllMySat

Download on the App Store